Location: Warszawa
(52.2500°N, 21.0000°E)
Time: 09:34:02
(UTC+02:00)

Gurwin Techsat 1B - Pass Details

Date: 03 May 2024
Orbit: 811 x 812 km, 98.9° (Epoch: 20 May)

Event Time Altitude Azimuth Distance (km) Brightness Sun altitude
Rises 03:53:11 0° 19° (NNE) 3,349 13.0 -9.4°
Reaches altitude 10° 03:55:38 10° 25° (NNE) 2,412 12.3 -9.1°
Maximum altitude 04:00:48 49° 100° (E) 1,045 9.5 -8.5°
Drops below altitude 10° 04:05:55 10° 175° (S) 2,395 10.7 -7.9°
Sets 04:08:19 0° 181° (S) 3,322 11.4 -7.6°
